ECMWFFLT1_sfc_temp_162.txt.gz
Temp
70 71 70 71 70 70 70 70 70 69 68 68 69 69 70 70 70 70 70 70 69 68 70 70 71 71 72 72 72 72 71 71 71 71 71 72 72 71 70 69 69 68 68 68 68 69 69 68 67 67 65 65 63 64 64 65 65 64 63 64 64 64
72 72 71 70 70 69 68 67 66 66 67 67 67 67 69 69 69 70 69 69 68 68 69 70 71 71 70 71 71 70 70 71 71 71 70 70 71 70 69 69 68 68 67 67 67 67 69 68 67 66 65 64 63 63 63 64 63 63 62 63 64 63
71 71 70 69 68 66 65 65 65 65 66 66 66 66 67 67 67 68 68 68 67 66 67 68 68 69 70 69 70 69 70 70 70 70 70 70 69 69 68 68 68 68 67 67 66 67 67 67 66 66 65 64 63 63 62 62 62 61 61 61 61 61
69 68 67 66 64 64 64 63 63 63 64 65 65 65 65 66 67 67 66 66 65 65 66 67 68 68 68 68 68 68 68 69 68 69 69 68 68 68 67 68 68 68 67 67 67 66 67 67 66 65 64 63 61 60 61 61 60 60 60 59 59 59
67 67 66 66 66 66 65 64 63 62 63 63 63 63 64 65 65 65 65 64 64 64 65 65 65 66 66 65 66 66 66 67 68 68 67 67 67 67 67 67 67 66 67 66 66 67 66 66 65 65 63 61 61 60 60 60 60 59 58 58 58 58
67 66 65 65 66 65 64 63 63 63 62 63 63 63 63 63 63 62 62 62 62 63 63 63 64 64 64 63 64 64 65 65 66 66 65 66 66 65 65 66 67 66 66 65 64 65 64 63 63 63 62 61 60 60 60 59 59 59 58 58 58 58
66 66 65 65 65 65 65 65 64 63 62 63 62 62 63 62 62 61 60 60 60 60 61 61 62 62 62 62 63 63 64 64 64 64 63 64 64 65 65 64 65 65 65 63 63 63 63 62 61 60 60 60 60 59 59 59 59 58 58 58 58 53
64 63 64 64 65 66 66 65 64 63 62 62 63 62 62 61 61 60 59 58 58 58 58 59 59 59 60 60 61 62 62 62 62 62 61 63 63 64 64 62 60 61 62 62 63 63 62 61 61 60 59 59 59 58 59 59 58 57 57 58 58 58
63 64 64 65 65 65 65 65 63 62 61 61 61 61 60 60 60 58 57 57 56 57 57 57 57 58 58 59 59 60 59 59 59 59 59 58 60 61 61 59 58 56 58 59 60 61 61 61 60 60 60 59 58 58 57 57 56 56 57 57 57 57
63 63 63 64 64 65 64 63 62 61 61 60 60 60 58 56 56 55 55 55 55 55 56 57 57 57 57 57 57 56 56 55 54 54 55 54 54 56 57 55 55 55 54 56 56 58 59 59 59 59 59 58 58 56 55 55 55 55 55 55 55 55
64 64 65 66 67 66 65 64 62 59 57 57 58 59 58 58 55 54 54 53 53 54 55 56 55 55 55 53 53 52 52 51 50 50 50 49 49 51 52 53 53 52 51 52 53 52 53 54 54 55 54 55 55 56 55 54 53 53 53 53 53 53
66 66 65 65 66 66 66 66 65 62 59 59 59 58 58 56 54 53 53 53 53 54 55 54 53 52 51 50 49 48 48 47 46 45 46 46 46 47 48 49 49 50 50 49 49 50 51 51 53 47 45 47 53 54 54 54 53 52 52 51 51 49
68 69 69 68 68 67 67 68 69 67 62 59 59 59 59 56 55 53 53 54 54 54 53 51 50 49 47 47 46 46 44 44 43 43 44 44 45 45 44 45 47 48 48 48 47 46 46 48 49 42 45 46 46 51 53 53 52 51 50 50 49 46
66 66 67 68 69 70 70 69 69 67 63 62 59 59 57 54 53 54 54 55 55 54 53 51 50 47 46 44 44 43 42 42 41 41 41 41 41 41 42 43 45 45 44 45 44 45 45 44 40 42 43 44 45 45 51 51 49 48 47 47 47 46
65 66 67 68 69 69 69 69 67 66 64 62 61 58 55 54 53 54 54 55 54 54 53 51 50 48 47 45 44 43 42 41 41 41 41 41 42 42 42 43 43 42 42 43 43 43 42 42 39 41 41 42 42 43 45 47 46 44 44 43 43 42
66 66 67 68 68 69 69 68 67 66 65 62 59 57 55 54 53 54 54 53 54 53 52 51 50 49 49 47 46 44 43 42 43 43 44 43 42 43 43 42 42 43 42 43 44 44 43 41 39 40 40 41 41 41 44 47 45 44 44 43 42 42
65 66 66 67 68 67 67 67 65 62 60 58 57 56 56 55 55 53 53 53 53 52 51 50 50 49 49 48 47 47 46 45 46 46 46 45 45 46 45 44 45 44 44 44 45 44 43 42 39 40 40 40 40 40 42 43 43 43 43 42 42 42
64 64 65 66 66 67 66 66 66 64 61 60 58 57 55 56 55 54 53 53 53 52 51 50 49 50 50 48 47 46 46 47 47 46 46 46 47 48 48 46 47 45 44 44 45 45 44 43 38 39 39 40 40 39 42 43 43 43 42 40 39 40
65 65 65 65 66 65 65 66 65 63 61 59 56 56 55 54 53 54 54 53 53 51 50 50 49 50 49 47 46 46 47 47 46 46 43 46 46 46 46 46 46 46 46 44 44 46 46 44 39 38 39 40 39 39 43 42 42 41 40 39 38 39
64 64 64 64 64 65 66 66 66 63 58 57 57 55 54 53 53 54 54 54 53 51 50 50 50 49 47 47 46 46 47 47 47 46 43 46 45 44 46 46 44 45 45 44 44 46 45 44 39 36 38 38 38 40 43 43 42 41 40 38 37 38
62 61 62 62 61 63 64 64 62 58 56 56 57 56 54 53 53 54 54 54 54 52 51 50 49 49 48 46 47 47 46 45 44 41 41 45 45 46 45 41 42 42 39 44 45 37 43 44 38 36 38 37 37 40 43 42 40 40 39 38 36 37
54 54 55 56 58 60 60 60 59 55 54 55 57 56 54 54 55 56 56 55 54 53 51 49 48 48 48 46 47 47 46 44 42 40 41 41 43 42 43 42 43 40 40 38 40 40 43 42 41 38 37 37 36 37 40 39 41 38 39 40 39 37
53 53 54 56 58 58 58 56 54 53 54 54 54 54 55 56 57 56 55 54 53 51 49 49 48 47 47 48 47 44 42 43 43 41 40 41 41 41 40 39 39 38 37 38 38 40 40 41 41 36 37 36 36 36 37 38 41 41 38 38 38 39
48 49 50 51 53 52 52 50 49 50 51 52 52 54 56 56 55 52 51 51 51 49 48 47 47 45 44 42 41 40 40 41 39 39 39 41 39 36 36 36 37 38 37 37 38 36 38 35 36 39 36 36 35 35 35 37 38 40 38 38 38 42
43 46 47 49 49 47 46 46 46 48 49 49 51 53 53 51 51 51 50 49 47 47 46 45 42 41 42 40 39 39 38 38 37 37 37 37 37 36 34 36 36 36 37 37 38 38 38 37 36 35 37 35 36 35 36 38 37 37 41 39 37 40
39 42 44 45 40 40 41 42 43 45 46 47 50 48 47 49 48 48 47 45 45 45 41 40 39 40 39 38 38 38 37 36 36 37 37 38 38 37 36 38 37 39 38 37 38 38 38 38 37 35 35 36 36 37 38 37 37 37 37 38 38 37
37 38 40 38 34 36 35 37 38 36 38 41 42 44 46 45 43 43 40 41 41 38 38 38 38 38 37 37 38 37 37 35 35 37 37 37 38 38 38 38 38 38 39 38 36 37 36 36 36 36 35 35 35 37 37 37 37 37 36 34 35 36
33 32 32 33 31 31 32 31 32 30 32 34 36 40 42 41 38 37 37 37 37 37 36 35 36 36 36 36 38 38 38 36 37 38 37 39 39 38 37 38 39 39 38 38 37 35 34 33 33 33 33 33 33 34 35 35 35 34 34 34 35 33
28 27 27 27 28 28 29 28 29 29 30 31 34 36 38 37 36 36 36 36 36 36 35 35 37 37 36 36 38 39 39 40 39 38 38 40 40 39 39 38 38 38 38 37 36 35 34 33 33 33 33 34 34 34 33 34 33 33 33 35 35 33
24 24 24 24 26 26 26 27 27 28 28 29 31 33 35 35 36 37 36 35 37 37 36 37 34 36 38 37 37 38 39 39 37 38 38 39 40 39 38 38 38 37 37 36 35 34 34 34 34 33 33 34 35 34 34 34 34 33 34 34 34 34
21 21 21 22 24 24 24 24 24 25 26 28 30 32 34 36 35 35 34 36 37 37 36 36 36 37 36 35 33 33 34 35 36 35 33 32 34 36 38 37 37 36 36 36 34 34 34 34 34 34 34 34 34 34 34 33 34 35 35 35 35 34
19 20 20 22 22 21 21 21 22 23 25 27 29 33 35 35 36 35 35 35 35 35 35 35 35 34 35 34 32 30 29 30 31 32 33 32 32 32 32 33 33 33 34 34 33 34 33 33 34 33 33 34 34 34 34 35 35 35 35 34 35 34
19 18 18 19 20 19 19 19 20 20 22 24 28 31 34 34 35 35 35 35 34 34 34 33 33 33 32 31 31 30 29 28 28 31 31 32 32 32 32 33 32 32 32 33 32 32 32 33 33 33 33 33 34 34 34 34 34 34 34 35 33 33
18 18 17 18 17 17 18 17 18 18 19 22 25 28 30 31 32 31 31 31 32 31 31 31 31 31 30 30 30 29 28 27 26 26 28 30 30 31 31 31 31 31 31 31 31 30 31 31 32 32 31 32 32 32 32 33 33 34 34 34 35 32
19 19 18 17 16 16 16 15 16 16 16 19 22 25 25 26 27 27 28 28 28 28 28 28 28 28 27 26 26 26 26 26 25 23 23 26 28 29 29 29 30 30 30 30 30 30 30 30 30 30 31 31 31 31 32 32 33 34 34 34 32 32
18 17 17 16 15 15 14 13 13 13 14 16 18 21 22 22 22 22 23 24 25 25 26 26 25 25 24 25 25 24 24 24 24 24 23 23 23 25 26 27 27 27 28 29 29 29 29 29 30 30 30 30 31 31 32 32 33 34 34 34 32 32
16 15 15 14 14 13 12 11 12 12 13 14 16 18 19 20 20 21 20 21 22 23 23 23 23 24 24 24 23 23 23 22 23 24 23 23 23 23 22 21 22 25 27 26 27 28 29 29 29 30 30 30 30 31 32 32 31 29 30 30 31 31
15 14 14 13 13 12 11 11 12 12 12 13 14 15 16 17 17 18 18 19 19 20 21 21 22 22 22 22 22 22 23 23 23 22 22 22 23 22 21 20 21 22 24 25 25 26 27 28 30 29 29 29 29 29 30 27 27 27 27 27 28 28

ECMWFFLT1_sfc_temp_168.txt.gz
Temp
60 60 61 61 61 61 61 61 62 62 61 60 60 61 61 61 61 60 60 60 62 63 63 63 64 64 65 65 65 65 65 66 66 66 67 67 67 67 67 66 66 66 66 67 66 66 66 65 64 64 63 63 62 62 62 63 63 62 62 63 64 64
59 60 60 59 59 59 59 60 60 60 59 58 57 57 57 58 59 59 60 61 60 62 61 61 62 63 63 63 64 65 64 65 65 66 66 67 66 66 66 66 66 65 65 65 65 65 64 64 64 64 63 63 62 62 61 62 62 62 62 63 64 63
60 59 58 58 59 59 60 60 59 57 56 56 56 57 58 58 59 58 59 59 59 58 60 61 60 61 62 62 63 63 64 65 64 65 66 64 65 65 65 65 66 65 64 64 63 64 64 64 64 64 63 62 62 61 61 61 61 61 62 63 63 63
58 58 57 56 59 58 58 56 55 55 55 56 56 56 57 58 59 58 59 57 58 58 60 60 59 60 60 60 61 61 63 63 64 64 62 63 64 63 65 65 65 64 64 63 64 64 64 64 64 64 63 62 61 61 61 61 60 61 62 62 61 62
56 56 56 57 58 57 56 55 56 56 55 55 55 56 57 58 58 58 57 58 58 59 59 58 58 57 57 58 59 60 61 61 61 61 61 62 63 62 63 64 63 64 63 63 63 63 63 63 63 63 63 62 61 60 60 61 60 60 60 60 61 61
55 55 54 56 55 54 56 56 56 57 56 57 56 56 57 57 57 57 56 56 57 57 57 57 56 56 56 56 58 57 58 59 59 58 59 61 60 61 61 61 63 62 62 62 61 61 62 62 62 62 62 62 61 60 60 60 60 61 60 60 60 60
54 55 54 54 55 54 55 56 56 57 57 56 56 57 57 57 57 56 56 55 56 55 55 54 53 54 54 55 56 56 56 56 57 57 58 59 59 60 60 60 59 60 60 62 61 61 61 61 61 61 61 62 61 61 60 60 60 60 60 60 60 55
58 59 59 60 60 60 58 58 57 57 57 58 58 57 56 56 55 54 55 54 54 54 53 53 51 52 53 54 53 54 55 56 56 57 57 57 59 59 58 59 59 60 60 60 61 61 60 60 60 60 61 61 60 60 60 59 59 59 60 60 60 60
60 61 61 61 61 59 59 58 59 59 58 57 57 57 57 56 54 52 52 52 52 52 52 52 52 53 52 51 52 52 52 53 53 53 55 54 55 57 57 56 57 56 58 59 59 60 60 60 59 60 60 60 60 60 59 58 58 58 59 59 59 59
60 60 61 61 61 62 61 61 61 59 58 59 57 54 54 56 52 51 52 51 51 51 52 52 52 51 51 51 50 50 50 51 51 52 53 50 54 54 55 56 56 56 54 58 58 59 59 59 59 59 60 60 60 59 58 58 57 58 58 58 58 58
58 59 60 60 60 60 61 61 60 56 53 51 52 52 53 53 51 52 52 52 51 52 52 51 51 51 50 49 48 48 49 50 50 50 50 50 51 53 53 54 55 54 54 55 55 56 57 58 59 59 59 58 59 59 59 58 58 57 57 57 56 56
58 59 60 59 59 59 59 58 57 56 55 55 52 51 53 51 53 53 52 51 52 52 51 50 49 50 49 48 48 48 48 48 48 48 48 48 49 49 49 50 52 53 54 54 54 54 55 57 59 53 51 52 58 58 59 58 57 56 56 55 55 54
58 58 58 59 59 58 58 58 57 54 53 52 53 54 52 51 52 50 50 51 52 52 50 49 49 48 48 49 48 48 47 48 47 46 46 46 47 48 48 47 50 51 51 52 53 53 53 55 55 48 49 50 50 55 57 56 56 56 55 54 54 54
57 57 57 57 57 57 54 53 51 49 51 53 53 54 53 54 54 52 52 52 52 51 49 48 47 46 48 47 48 48 47 45 44 44 44 43 43 44 42 45 48 49 50 51 51 51 52 53 48 48 47 47 48 49 54 56 55 55 54 54 53 53
50 51 52 51 54 53 54 55 54 53 53 50 50 51 52 53 54 54 53 53 51 51 51 47 47 47 48 48 48 48 46 44 43 43 43 43 42 39 42 45 45 46 47 48 49 50 50 51 48 47 47 45 45 46 50 55 55 53 53 53 52 52
55 55 54 54 53 52 52 51 51 51 49 50 49 50 51 52 53 52 52 52 53 53 50 46 46 48 49 49 47 46 45 43 44 43 41 38 37 40 42 40 41 43 45 46 48 48 49 50 47 46 46 46 45 45 47 54 53 52 52 51 51 51
50 49 48 48 48 48 48 50 50 51 53 53 53 52 52 51 50 51 52 52 52 51 47 47 46 48 49 48 46 45 44 44 44 42 41 40 40 40 40 40 39 41 42 43 45 46 47 48 45 45 45 45 45 45 45 51 51 50 50 50 50 50
44 44 45 46 46 47 47 47 48 48 49 50 51 51 50 49 49 49 48 48 49 49 47 46 46 47 47 47 45 44 45 45 44 44 42 39 38 38 37 38 38 39 40 41 42 43 44 46 44 43 43 44 45 45 47 49 49 49 49 48 48 48
42 43 43 43 44 45 45 45 45 45 45 46 47 48 47 47 48 48 48 48 47 47 47 47 47 47 47 45 44 44 44 45 45 43 42 40 40 39 38 39 39 39 39 39 40 41 43 43 43 42 42 43 44 44 47 47 47 47 47 46 45 45
40 40 40 41 41 41 41 40 40 40 41 42 43 44 44 44 45 45 44 45 45 46 46 46 45 46 46 44 44 44 44 44 43 43 42 41 41 40 40 39 39 39 39 40 41 41 42 43 42 40 41 42 43 43 46 46 46 45 45 43 42 43
36 36 37 38 37 36 36 36 37 37 37 38 39 40 41 41 39 37 38 39 41 43 44 45 44 44 44 44 45 44 43 43 44 43 41 41 41 41 41 39 39 39 39 40 41 38 41 42 41 39 40 41 42 42 45 45 44 44 43 42 40 39
33 33 34 35 33 33 33 34 34 33 34 36 37 37 37 35 34 35 36 38 39 41 42 43 42 42 42 43 43 43 43 42 42 41 40 39 39 40 40 38 39 39 40 40 40 41 41 41 42 38 39 40 41 41 43 43 43 43 43 41 39 37
31 32 32 33 31 30 31 31 30 30 31 32 32 32 33 33 33 33 34 36 37 38 39 40 40 41 41 41 41 42 41 40 40 39 38 39 38 37 38 38 38 38 39 39 39 40 41 42 42 38 38 39 40 41 41 41 43 44 42 38 37 37
29 29 29 30 29 29 28 28 27 28 29 29 29 30 31 31 30 32 33 34 35 35 36 37 38 39 40 40 39 38 40 39 38 38 37 36 37 37 37 37 37 37 38 38 36 38 40 40 38 38 36 38 39 40 41 39 39 40 39 38 37 37
27 27 27 28 27 27 27 27 26 26 27 26 27 29 29 29 30 31 32 33 33 34 35 35 36 36 38 37 37 36 37 37 36 36 36 36 36 36 36 37 36 36 36 35 33 34 35 34 36 35 36 37 38 39 40 40 39 40 38 39 37 37
25 25 25 26 26 26 26 25 24 24 24 24 27 26 27 27 28 30 31 32 33 34 34 34 35 35 35 35 35 35 35 35 34 35 35 34 35 35 36 35 35 34 34 34 32 32 31 31 31 34 34 35 37 38 38 38 39 38 36 36 36 34
22 23 23 24 25 25 25 24 22 21 20 22 24 23 23 25 26 27 29 32 33 33 34 33 33 34 33 33 33 34 34 33 33 34 33 33 33 33 34 33 33 34 33 32 33 31 30 30 30 31 33 34 34 37 38 38 38 39 38 34 33 33
21 21 20 22 24 23 23 23 22 19 20 21 21 21 22 22 24 27 30 33 34 34 34 33 33 33 32 32 32 32 32 33 33 33 32 32 32 32 33 32 33 32 31 31 31 29 29 31 32 32 33 33 33 34 36 37 36 35 34 34 33 34
19 19 19 19 22 22 21 21 21 21 20 19 19 19 20 21 24 28 32 33 34 34 34 34 33 33 32 30 29 29 30 30 30 30 29 29 29 30 31 33 32 32 32 32 29 29 30 31 32 32 32 32 31 30 30 31 32 33 33 32 32 33
18 18 17 18 20 20 19 19 19 19 18 17 17 17 18 21 25 28 31 31 32 32 33 34 33 33 31 30 29 29 29 30 31 29 28 28 28 28 29 30 31 31 32 30 30 30 30 30 32 32 32 31 31 30 30 31 31 31 31 31 31 32
16 16 16 16 18 17 17 17 18 18 16 16 16 16 17 20 23 27 30 30 31 30 32 33 33 32 31 30 29 28 29 28 29 30 29 31 31 29 29 29 29 29 30 31 31 31 29 30 30 31 32 31 33 31 30 31 31 32 31 32 33 32
15 15 15 16 16 15 15 16 16 16 15 15 15 15 16 18 21 25 26 27 28 29 30 30 31 31 31 30 29 28 28 30 31 31 29 29 31 32 33 33 29 30 30 30 30 32 30 29 31 34 34 34 34 34 34 34 34 34 33 34 35 33
16 14 13 15 15 13 13 14 14 14 14 14 14 15 16 17 19 21 22 23 24 26 27 28 27 28 29 29 29 28 27 26 28 30 31 31 31 32 32 33 33 33 33 32 30 32 34 34 34 34 34 34 34 34 34 35 35 35 35 35 33 32
14 14 14 15 13 12 12 12 12 12 12 12 12 14 15 16 17 18 19 20 21 24 25 25 25 25 25 26 28 28 27 26 25 26 29 30 30 31 32 32 33 33 33 32 32 30 30 32 33 33 33 33 33 33 34 34 35 35 35 35 35 31
15 15 14 13 13 12 12 11 11 11 10 10 11 12 13 15 16 16 18 19 19 20 22 23 23 23 24 24 24 24 25 25 25 23 24 27 29 29 29 30 31 32 32 32 32 32 31 31 32 33 33 32 33 33 33 34 35 35 35 35 32 30
14 13 13 12 11 11 11 10 11 10 9 9 9 10 12 14 15 16 17 18 18 18 19 20 20 21 22 23 23 23 23 24 24 24 24 24 24 24 26 27 28 29 30 31 31 31 31 31 31 32 32 32 33 33 33 33 33 35 35 33 30 30
13 12 12 12 11 10 10 9 10 9 9 9 9 9 11 12 13 15 16 17 18 17 18 18 19 19 19 20 21 21 22 22 22 23 22 21 20 20 19 20 22 25 28 28 29 30 31 31 31 31 31 32 32 33 33 33 29 28 28 29 29 28
13 11 11 11 10 9 9 9 10 9 9 8 8 8 10 11 12 13 14 14 15 16 16 17 17 18 18 18 19 20 21 21 21 21 21 21 21 20 19 19 20 21 24 25 26 29 30 30 30 30 30 30 31 31 31 26 25 26 25 24 23 23

ECMWFFLT1_sfc_temp_174.txt.gz
Temp
52 51 51 51 52 52 51 51 50 51 51 49 53 57 54 52 51 51 51 50 52 55 55 54 54 54 55 55 55 55 56 57 58 58 59 59 59 59 59 59 60 60 60 61 62 63 63 63 63 63 63 62 62 62 61 62 61 61 61 61 61 61
50 51 51 51 52 53 52 51 52 56 53 49 52 49 48 49 50 50 51 53 50 53 51 52 52 53 53 54 53 55 55 57 57 57 57 59 58 58 59 58 59 60 60 60 60 61 61 62 63 62 62 62 62 62 61 61 61 60 60 61 61 61
49 50 50 50 49 49 49 51 54 54 50 51 52 54 55 52 52 50 51 51 50 49 51 53 51 52 52 52 52 53 55 56 55 56 57 55 57 57 57 57 58 59 59 59 59 59 60 61 62 62 62 61 61 61 61 61 61 60 60 60 60 61
49 50 49 47 48 51 52 52 49 50 53 54 52 50 50 52 54 52 52 49 50 49 51 52 49 49 49 50 51 52 53 54 55 55 52 53 56 54 56 56 57 57 57 57 58 59 59 60 61 61 61 61 61 61 62 61 60 60 60 60 59 60
49 50 49 49 49 50 50 49 49 51 51 51 51 49 52 51 52 52 50 50 49 50 50 49 50 49 48 48 50 50 52 53 53 51 52 53 54 53 53 55 55 55 55 56 57 57 58 59 59 60 60 60 60 60 60 61 60 60 59 59 59 60
48 49 50 52 51 52 52 51 50 50 50 51 51 51 52 53 52 52 50 49 49 48 47 48 49 47 47 47 49 50 51 51 51 50 50 51 51 53 54 52 53 53 53 54 54 55 56 57 57 58 58 59 60 60 60 60 60 60 60 59 59 59
52 51 51 51 53 52 52 52 52 51 51 50 51 52 52 52 52 51 50 46 47 47 46 47 46 45 47 48 48 49 49 49 49 48 49 49 50 51 51 52 49 50 51 53 53 54 54 55 56 57 57 58 59 59 59 60 60 59 59 60 60 55
52 52 52 53 54 53 53 53 53 53 51 51 51 52 52 52 51 49 47 47 46 48 46 45 43 43 45 46 46 47 48 48 48 48 48 47 50 50 49 50 50 50 51 51 52 52 53 54 54 55 56 57 57 57 58 58 58 59 59 59 59 59
53 54 54 53 52 52 52 52 52 51 51 50 49 52 50 49 47 47 46 45 42 44 44 44 45 44 44 44 45 45 44 45 43 43 47 47 45 46 48 47 48 48 48 50 50 51 52 53 53 54 54 55 56 57 57 57 57 58 58 59 59 59
53 53 54 54 55 54 52 51 51 50 50 50 47 44 43 45 41 41 42 41 41 41 44 45 44 43 45 44 44 44 43 43 43 43 44 40 43 44 45 46 48 48 46 48 49 50 50 51 52 52 53 54 54 55 56 56 56 57 57 57 58 58
52 53 53 53 52 52 53 52 49 47 45 42 41 39 41 40 38 39 38 39 40 42 43 43 43 44 44 42 43 43 44 44 43 42 42 40 41 43 43 45 46 46 46 46 46 48 48 49 50 52 52 52 53 54 55 56 56 56 56 56 56 57
53 53 53 48 47 46 46 47 47 46 45 44 41 40 42 40 40 39 39 40 41 41 41 41 40 41 41 41 42 43 42 42 42 41 41 42 41 41 41 42 43 43 44 45 46 46 47 48 50 47 46 46 51 53 54 55 54 54 54 54 55 55
51 51 48 41 41 42 41 41 41 41 41 42 42 42 42 40 41 40 38 39 38 39 39 40 40 40 39 40 40 41 41 43 42 41 41 41 41 41 41 39 41 41 41 43 44 45 46 47 48 45 47 47 46 48 51 52 53 54 54 54 54 54
40 38 36 37 37 37 38 38 38 36 37 39 39 40 40 40 40 41 40 40 38 38 38 37 37 37 38 39 40 40 40 39 39 39 40 39 40 41 38 38 40 41 41 41 42 42 43 44 44 45 45 45 46 45 47 50 51 52 53 53 54 54
32 33 33 34 35 33 33 33 31 33 34 34 36 36 36 37 37 37 36 36 36 36 36 36 36 35 35 36 37 38 38 38 39 39 39 39 39 37 39 41 40 40 40 40 41 41 42 42 44 44 44 44 45 45 44 48 49 50 51 52 53 54
30 30 31 32 32 30 30 30 29 30 32 32 32 32 33 34 33 31 30 31 31 32 32 33 33 33 34 34 35 35 36 36 37 37 37 36 37 37 38 38 38 39 40 39 39 40 41 42 43 44 44 44 44 44 43 46 47 48 49 50 52 53
27 28 29 30 30 28 28 27 28 29 30 31 31 32 32 32 30 30 29 29 30 30 30 31 31 31 32 33 34 34 34 35 35 36 36 36 36 37 38 38 38 39 39 38 38 38 39 42 42 43 43 43 44 44 43 44 45 46 47 48 50 51
26 26 28 30 28 27 27 26 27 27 28 30 30 30 30 30 28 28 29 29 30 30 31 31 31 31 32 33 33 34 34 34 34 34 35 35 35 36 35 36 36 36 38 38 37 37 38 41 42 42 42 43 43 43 42 42 43 44 45 46 47 48
26 26 27 26 26 25 26 27 27 26 27 28 29 29 29 28 27 28 28 29 30 30 31 31 32 32 32 33 33 33 33 33 34 34 33 34 34 35 35 35 36 37 37 37 37 37 38 39 40 41 41 42 43 41 39 40 40 42 43 44 45 46
28 28 27 26 25 26 27 27 26 26 27 27 27 27 26 26 26 27 27 27 29 30 31 32 32 32 33 33 33 33 33 33 33 33 33 33 33 34 34 35 35 36 35 36 37 37 37 39 40 40 41 41 42 40 39 39 40 41 42 43 44 45
27 27 27 27 25 26 27 26 26 26 25 26 25 25 24 24 25 25 25 26 28 29 30 31 32 32 33 33 33 32 32 32 32 33 33 32 33 33 34 33 34 34 35 34 35 35 36 36 37 39 40 40 41 39 38 38 39 40 41 42 43 43
26 26 25 24 25 26 26 26 25 25 25 24 24 23 23 24 24 25 25 26 27 28 29 30 31 32 32 32 32 31 31 32 32 31 32 32 32 32 33 32 33 33 34 34 33 34 35 35 36 37 39 40 40 41 38 38 39 39 40 41 40 40
25 24 24 24 25 25 25 25 23 23 24 23 23 22 23 23 23 23 24 25 26 27 29 30 31 32 32 32 32 32 32 32 31 31 31 30 31 31 31 32 32 32 33 33 33 33 34 34 35 36 37 38 39 40 39 39 40 40 40 40 40 41
24 25 25 25 25 25 24 24 22 22 22 22 21 22 23 22 22 23 23 24 25 28 30 31 32 33 33 33 32 31 31 32 32 31 31 30 29 29 30 30 31 31 32 32 32 32 33 33 34 33 34 35 37 38 39 38 39 40 40 40 40 40
22 23 23 23 23 23 22 22 20 21 21 20 20 22 21 21 21 22 23 24 27 29 30 32 32 32 33 32 32 31 30 31 31 30 30 29 28 27 27 28 29 29 30 31 32 32 33 33 32 31 30 31 33 35 36 38 38 39 39 39 38 39
22 22 22 22 23 21 20 19 19 19 18 18 21 20 19 20 20 21 22 25 27 29 30 30 31 32 32 31 31 30 29 29 29 30 29 29 28 27 27 27 28 28 28 29 30 31 32 32 31 30 31 32 33 34 35 36 36 37 36 37 37 38
20 21 21 21 21 20 19 18 17 16 15 18 19 17 17 17 18 19 21 24 26 26 28 29 30 30 31 31 31 29 28 28 29 28 29 29 28 28 28 28 29 28 28 28 28 29 30 31 31 32 33 33 33 34 35 35 35 35 36 35 36 36
20 20 19 20 20 18 17 17 16 13 14 16 16 16 16 15 16 17 20 23 24 25 26 27 28 29 29 30 31 30 29 28 28 27 28 28 28 28 28 28 29 28 28 28 28 28 29 30 32 32 33 33 33 33 34 34 34 33 34 34 35 35
18 18 18 17 19 18 16 15 15 14 13 12 13 13 13 13 14 17 19 21 22 23 24 25 25 26 27 28 28 29 29 29 28 28 27 27 26 26 27 28 28 28 28 28 28 28 29 30 32 32 32 33 33 33 33 33 33 33 33 33 34 33
17 16 16 16 17 17 16 15 14 14 12 11 11 10 10 11 13 14 17 19 21 21 22 23 24 24 24 25 26 26 27 28 28 27 26 26 26 25 26 27 27 27 27 27 28 28 29 30 31 31 31 32 32 32 32 32 32 31 31 32 32 32
16 16 15 15 17 16 14 14 14 13 11 10 10 10 9 9 11 13 15 17 19 19 20 21 22 22 23 23 24 25 25 25 26 27 27 29 28 27 26 26 26 27 28 29 28 28 27 28 28 30 33 33 33 33 32 31 31 31 31 32 34 32
16 16 15 15 16 14 13 13 13 13 11 10 9 9 8 9 10 12 13 15 16 17 17 18 19 20 21 21 21 22 23 27 29 28 27 27 29 30 30 30 27 28 28 27 28 30 27 27 29 32 33 33 33 34 34 34 35 35 33 33 34 33
15 15 14 14 15 13 13 12 13 12 10 10 9 8 8 8 9 10 11 13 14 15 16 16 16 17 18 19 20 20 21 21 23 28 29 29 28 29 30 29 29 29 30 28 26 28 30 30 31 31 31 32 32 33 34 34 34 35 35 35 33 30
14 14 13 14 13 12 12 12 12 11 9 9 8 7 7 8 8 8 10 12 13 14 15 15 15 16 16 16 18 18 19 19 19 21 26 27 28 29 29 29 28 28 28 29 29 27 27 29 30 30 30 30 31 32 33 33 34 33 33 34 34 29
14 13 12 12 11 11 11 10 10 10 7 7 7 7 6 7 8 8 9 11 12 13 14 14 14 14 14 14 15 16 17 17 17 17 18 22 26 27 27 27 27 26 27 27 27 28 28 28 28 29 29 29 30 31 32 32 32 31 31 31 27 26
12 12 11 10 9 9 9 8 9 8 6 7 7 6 5 6 7 8 9 10 11 11 12 13 13 13 14 15 15 15 16 16 17 18 19 18 19 20 23 24 24 24 25 25 25 26 26 27 27 27 27 27 28 29 30 29 28 29 28 26 22 23
11 11 10 9 8 8 7 7 8 8 6 6 7 5 5 6 7 7 8 10 11 11 11 12 12 13 13 14 14 15 15 15 17 18 18 18 17 16 15 14 16 20 22 21 21 23 25 25 25 25 24 25 25 26 27 26 21 20 19 19 18 18
9 10 9 8 7 6 6 5 8 7 5 6 5 4 5 5 5 6 7 8 9 10 11 11 11 12 13 13 14 15 15 16 16 16 17 18 18 16 14 13 14 15 18 20 20 21 22 24 24 23 22 22 22 23 23 17 15 15 15 15 15 15

ECMWFFLT1_sfc_temp_180.txt.gz
Temp
51 51 51 52 52 51 51 50 50 51 52 51 49 49 50 49 49 50 50 48 49 50 49 48 48 47 48 49 49 49 50 51 52 51 53 53 53 53 54 53 53 54 54 54 55 56 57 57 58 58 58 58 58 58 58 59 59 59 59 60 60 61
49 49 49 49 49 49 50 50 50 50 50 51 51 51 51 51 51 51 51 50 48 49 49 48 46 46 46 47 47 49 48 50 50 50 50 51 51 51 50 51 52 52 52 52 53 53 54 54 55 56 56 57 57 58 57 58 58 58 59 59 60 60
48 48 48 48 48 48 48 48 48 48 48 48 48 48 48 48 49 49 49 49 49 47 48 49 48 47 46 45 45 46 47 47 47 47 48 47 48 47 48 49 50 50 50 50 51 51 52 52 53 54 54 54 55 56 56 57 57 57 58 58 58 59
44 44 44 44 44 44 44 45 45 44 44 45 45 45 44 45 46 46 46 47 47 47 47 47 46 45 44 44 45 45 45 45 46 45 45 45 47 46 46 47 47 47 48 48 49 49 50 51 52 52 52 52 53 54 55 55 55 56 56 56 57 57
41 40 40 41 41 41 42 42 42 42 42 42 42 42 42 43 43 44 44 45 45 45 46 45 45 44 43 43 43 43 44 45 44 43 44 44 45 44 45 45 45 46 45 47 47 48 48 50 50 50 50 51 52 52 53 53 54 54 54 55 55 56
38 38 37 38 38 39 39 39 39 39 39 40 39 39 40 41 42 42 42 43 43 44 43 43 43 42 43 42 43 42 43 43 43 42 43 44 44 44 44 43 44 44 44 44 45 46 47 47 47 48 48 50 50 51 52 52 52 53 53 54 55 55
36 36 36 36 36 36 37 37 37 37 37 38 37 38 38 39 40 39 40 41 41 41 41 40 40 40 40 41 42 42 42 41 41 41 41 42 43 43 43 44 41 43 42 45 44 45 45 46 46 47 47 48 48 49 50 50 51 51 52 53 53 51
35 35 35 35 35 35 35 36 35 35 35 35 36 36 36 37 38 38 39 39 39 39 38 38 37 38 38 38 39 40 40 40 41 41 41 40 41 41 41 41 41 41 42 43 43 44 44 45 44 45 46 46 46 46 47 48 49 49 50 51 51 52
33 34 34 34 33 34 34 34 33 33 33 33 34 34 34 35 35 35 37 37 36 36 36 36 36 37 37 37 37 38 39 39 38 38 39 37 37 38 40 40 40 40 40 42 42 43 43 44 43 43 44 45 46 47 47 47 47 48 48 49 50 50
32 32 32 32 32 32 33 33 33 32 31 31 32 32 32 33 33 33 35 34 34 34 34 34 34 35 36 36 37 38 37 37 37 37 37 36 37 37 37 38 39 40 39 40 40 41 42 42 42 42 43 44 44 45 45 45 46 46 46 47 47 48
31 31 31 31 31 31 31 31 30 30 30 30 30 31 31 32 32 32 32 32 31 31 32 32 33 34 34 35 36 35 36 36 36 36 36 37 37 38 35 37 38 38 39 39 38 39 39 40 41 42 41 42 44 44 45 46 46 45 45 45 45 45
31 31 31 30 30 29 29 29 29 28 28 28 29 29 30 31 31 31 31 31 31 31 31 32 32 33 33 33 34 34 34 34 35 36 36 37 37 37 37 36 36 35 36 38 39 38 40 41 42 40 41 41 42 42 43 43 42 42 42 42 43 43
30 30 29 29 29 28 28 28 28 28 27 27 28 28 29 30 30 30 29 29 31 31 31 32 32 32 32 33 33 33 33 34 34 35 35 36 36 36 36 36 37 37 37 37 37 38 39 40 41 39 42 42 43 41 40 41 41 42 40 40 41 41
29 29 28 28 28 28 27 27 27 27 26 27 27 27 29 30 30 29 28 29 30 30 31 31 32 32 32 32 32 33 33 34 34 34 34 35 35 35 35 35 36 36 36 37 37 37 37 38 38 41 41 42 42 41 41 40 40 40 40 39 39 40
29 28 28 28 28 27 27 27 26 26 26 26 27 28 28 29 29 28 28 29 29 29 30 30 30 31 31 32 32 33 33 33 34 33 33 33 34 34 34 35 35 35 35 35 35 36 36 36 38 40 40 41 41 41 41 41 40 40 39 38 38 39
30 29 28 28 27 27 28 27 26 27 27 26 27 26 27 28 27 27 27 28 28 28 29 29 29 29 30 31 32 33 33 33 33 33 33 33 33 33 33 34 34 34 35 35 35 35 35 36 37 40 40 40 40 41 41 40 40 39 39 38 38 39
29 28 28 27 28 28 27 27 27 27 26 26 26 26 26 27 26 26 27 27 27 28 28 28 28 28 29 30 31 32 32 33 33 33 32 32 32 32 32 32 32 33 34 34 34 34 34 35 38 39 39 39 39 40 40 38 38 37 37 38 38 38
27 27 27 28 27 27 27 27 27 26 25 26 25 26 26 26 25 25 26 26 26 26 26 27 27 27 28 29 30 31 32 33 33 32 32 32 32 32 32 32 32 32 32 33 33 33 32 34 37 37 37 38 39 39 37 36 35 35 35 36 36 36
27 27 27 26 26 26 26 27 26 24 24 24 24 25 25 25 24 24 25 24 24 25 25 26 26 26 27 28 29 30 31 32 32 32 32 31 31 31 31 31 31 32 32 32 32 32 31 32 34 36 36 37 37 36 34 34 34 34 35 35 36 37
26 26 26 25 25 25 26 25 24 23 22 22 23 24 24 24 23 24 23 22 23 24 24 25 25 25 26 28 28 30 31 32 32 32 32 31 30 30 31 31 30 30 31 31 31 31 30 31 33 34 35 35 35 35 33 33 33 33 34 35 37 38
26 25 25 24 24 24 25 24 23 22 20 21 21 22 22 22 22 22 20 21 22 22 23 24 25 25 26 27 29 31 31 32 32 32 32 31 31 30 31 30 29 30 30 31 31 31 31 31 32 33 34 35 35 35 33 33 33 33 34 35 35 36
25 25 24 23 23 24 23 23 22 20 20 19 20 20 20 21 21 19 19 19 20 22 23 23 24 26 27 28 29 30 31 32 32 31 31 31 31 30 30 30 30 30 30 31 31 31 32 31 32 32 34 35 36 36 34 34 32 32 32 33 32 32
25 24 24 24 23 23 23 22 21 19 19 19 18 18 19 19 18 17 17 18 18 20 21 23 24 26 27 28 28 30 30 31 31 31 30 30 30 30 30 30 30 30 30 31 31 31 32 32 31 32 34 35 35 36 35 33 33 33 33 32 33 32
24 24 24 24 23 22 22 21 19 18 18 17 17 18 19 17 16 16 16 16 16 17 19 21 24 26 26 27 28 27 27 29 30 30 30 30 29 29 29 30 30 30 30 31 31 31 32 32 32 32 33 34 35 35 36 33 33 34 33 32 32 32
23 23 23 23 22 22 21 20 18 17 17 16 16 18 17 15 16 15 15 14 14 15 17 20 22 23 25 25 26 26 25 27 28 28 29 29 29 28 28 28 29 29 29 30 31 31 31 32 32 33 32 33 34 35 35 35 35 35 33 31 30 31
22 22 22 22 21 20 20 19 17 17 16 15 18 17 15 15 15 14 13 13 14 15 17 18 20 21 23 23 24 24 24 25 26 27 27 28 28 28 27 27 28 28 28 28 29 30 31 32 31 31 32 32 33 33 34 34 35 35 33 33 31 32
21 21 20 20 19 19 18 18 17 14 13 16 18 15 15 14 12 12 11 12 13 14 15 17 18 19 21 21 22 21 22 23 24 24 25 27 27 27 26 26 27 27 27 27 27 28 29 31 31 30 31 31 31 32 32 32 33 33 34 32 32 33
19 18 16 16 17 18 18 18 17 13 15 17 16 16 14 12 10 10 10 11 12 13 14 15 17 19 19 19 20 20 20 21 21 22 23 25 25 26 26 25 26 26 26 26 26 26 27 29 29 29 29 30 30 30 30 31 31 31 32 33 32 33
16 14 13 13 16 18 19 17 17 16 17 16 16 13 11 10 9 9 9 10 11 12 14 14 15 17 18 18 18 19 19 19 19 20 21 22 23 24 24 24 25 25 24 24 24 25 26 26 27 27 27 28 28 28 28 29 29 31 32 32 31 31
13 12 12 13 15 17 17 15 14 15 15 15 12 10 9 8 8 8 8 8 10 11 13 13 15 16 15 16 17 16 16 17 18 18 18 20 21 22 22 23 24 23 23 22 23 23 23 23 24 25 25 25 26 26 27 27 28 29 30 30 29 29
12 12 11 12 15 16 14 13 13 14 14 12 9 8 6 6 7 7 7 8 10 10 12 13 13 14 14 15 16 16 17 16 17 18 19 22 23 23 23 23 23 23 23 23 22 21 20 21 22 24 27 26 27 26 25 25 26 28 29 29 31 30
11 10 9 10 13 14 12 11 11 12 12 11 9 7 5 5 5 5 5 7 8 9 10 11 12 13 13 13 14 14 15 19 21 20 19 19 24 26 27 27 22 23 22 22 22 23 20 20 23 27 27 26 26 27 27 28 29 30 28 29 30 29
10 9 7 8 10 11 11 9 9 9 10 10 8 6 5 5 4 4 4 6 6 8 9 9 10 11 12 13 13 13 13 14 17 21 22 23 23 24 26 26 25 25 24 23 20 22 25 25 26 26 26 25 25 25 26 27 28 27 27 26 24 19
7 6 6 7 8 10 10 9 8 7 8 7 6 6 4 4 3 2 3 5 6 7 8 9 9 10 11 11 12 12 12 12 12 14 19 22 22 24 25 24 24 23 23 23 23 21 20 23 24 25 24 24 23 23 24 25 26 25 24 23 22 16
7 7 6 6 7 9 9 7 7 7 6 6 5 5 3 3 3 2 3 4 5 6 7 8 8 9 10 9 10 10 11 11 11 10 11 16 21 23 23 23 22 22 21 21 22 22 21 22 23 23 23 22 22 22 22 23 23 23 22 19 14 12
6 6 6 6 7 7 7 5 5 5 5 5 4 4 3 2 2 3 3 4 5 5 5 6 7 7 8 9 10 10 10 10 10 10 11 12 13 16 19 21 20 19 19 19 20 20 20 21 21 22 21 21 20 20 20 19 16 19 20 17 10 11
5 4 5 6 6 5 4 3 4 4 4 4 4 2 1 1 2 2 4 5 5 4 4 5 6 7 7 8 9 9 9 9 10 11 11 11 12 12 12 13 14 16 17 15 15 17 19 19 20 20 19 19 18 18 17 14 8 7 8 9 10 10
4 3 4 4 3 2 2 2 4 5 3 2 2 1 1 1 1 2 2 3 3 3 4 4 5 6 7 8 9 9 9 9 9 9 9 11 12 11 11 11 12 11 13 14 14 15 16 17 18 18 17 16 16 15 13 4 4 4 5 6 7 8

ECMWFFLT1_sfc_temp_186.txt.gz
Temp
42 42 43 43 43 43 43 43 44 44 43 43 43 42 42 42 42 43 43 43 43 44 44 44 45 45 44 45 47 48 48 49 50 50 51 52 54 55 54 56 56 57 57 58 59 61 62 63 64 64 65 66 66 66 66 66 66 66 65 67 66 66
42 42 42 42 42 43 43 43 43 43 43 43 43 43 42 42 41 41 41 42 43 43 43 44 44 44 44 44 44 45 45 46 47 48 48 49 51 52 52 54 54 55 55 56 56 57 60 61 62 63 63 64 65 65 65 67 66 65 64 65 66 65
42 42 42 42 43 43 43 43 42 42 42 42 42 41 41 40 40 41 40 41 41 42 42 42 42 42 43 43 44 44 43 44 45 46 47 48 48 50 50 51 52 53 53 54 55 56 57 58 59 61 62 62 63 64 64 64 64 63 64 65 64 65
42 42 43 42 42 42 41 42 42 42 41 41 41 40 40 39 39 40 40 41 41 41 41 42 42 42 42 42 42 42 42 43 44 45 45 45 47 48 47 49 50 50 51 52 53 54 55 55 56 58 59 59 60 61 61 61 62 63 63 63 62 64
41 41 41 41 41 41 41 41 41 40 41 41 40 39 39 40 39 39 40 40 40 41 41 42 41 41 41 41 41 41 41 42 42 43 42 43 44 45 46 47 47 48 49 49 50 51 52 53 53 54 55 56 57 58 59 60 61 61 61 61 62 63
42 41 41 41 41 41 41 41 40 40 40 40 40 39 39 39 39 39 39 39 39 41 41 40 40 40 40 40 41 40 41 41 41 42 41 42 43 43 44 45 46 46 46 46 47 48 49 50 51 51 52 53 54 55 56 58 59 59 59 60 61 62
40 40 41 41 41 40 40 40 40 40 39 39 38 38 39 38 39 38 38 38 38 39 39 39 39 39 39 39 40 40 41 41 41 41 41 41 41 41 42 44 45 45 45 44 44 45 45 46 47 48 49 51 52 53 53 55 56 57 58 59 59 55
40 40 41 40 40 40 40 40 39 39 39 39 39 38 38 37 38 37 37 37 37 38 38 38 38 37 38 38 38 39 40 40 40 40 41 40 39 40 40 42 43 44 44 45 45 45 44 45 44 45 46 48 49 50 51 52 53 54 55 56 57 58
39 40 40 40 40 40 40 40 39 39 38 38 38 38 37 37 37 36 36 36 36 36 36 36 36 36 36 37 37 38 39 39 39 40 39 40 39 39 39 40 41 42 43 43 44 44 44 44 44 44 45 45 46 46 46 47 49 51 52 53 54 56
38 39 39 39 39 40 39 40 39 38 38 37 38 38 37 36 35 35 35 35 35 35 35 35 35 36 36 36 36 37 38 38 38 38 39 39 39 39 39 39 39 40 41 42 43 44 44 44 45 45 46 45 44 44 44 44 44 46 48 50 51 52
37 38 38 38 39 38 38 38 38 38 37 37 37 37 36 36 35 34 34 34 34 34 35 35 35 35 35 35 35 35 36 36 37 37 37 38 39 39 39 40 39 38 39 40 41 41 42 42 42 44 43 42 43 45 44 44 43 43 43 44 45 46
37 37 37 37 37 37 37 37 37 37 36 36 36 35 36 35 34 34 33 33 33 34 35 34 34 34 33 33 33 34 35 35 36 36 36 37 38 39 39 39 39 38 38 38 39 39 39 39 41 39 37 38 40 41 42 43 43 43 43 42 42 43
36 37 36 36 36 36 36 36 37 36 35 35 35 34 35 35 33 33 33 32 33 33 34 34 33 32 31 32 32 33 33 34 34 35 35 36 37 37 38 38 38 38 38 38 37 37 37 37 38 36 37 37 37 38 40 41 42 44 44 43 42 42
35 35 35 35 36 36 36 36 35 35 34 34 34 34 34 34 33 32 32 32 32 32 32 32 31 30 29 30 30 31 32 33 34 34 35 35 36 36 37 36 37 38 38 37 37 37 37 37 36 36 36 36 36 36 37 39 40 42 43 43 43 42
35 35 35 35 35 35 36 36 35 34 34 33 33 34 33 32 32 31 31 31 31 31 32 31 29 28 28 29 30 30 31 32 32 33 34 34 35 35 35 35 36 36 37 37 36 36 37 37 36 35 36 36 36 36 36 38 39 40 40 41 41 41
34 35 35 35 36 36 36 36 34 34 34 33 33 32 32 31 31 31 30 30 30 30 30 29 27 26 27 28 29 29 30 30 31 33 34 34 34 34 34 34 35 35 36 36 36 36 36 36 35 35 35 35 35 36 36 38 38 38 38 38 38 39
33 34 34 35 36 35 35 34 34 33 32 32 31 31 31 31 30 30 30 29 29 29 28 26 26 25 26 26 27 28 28 29 30 32 33 33 33 33 33 33 34 34 35 35 36 36 35 35 35 35 35 36 36 36 36 37 37 37 36 37 38 38
32 32 33 35 35 35 35 33 33 31 30 31 30 30 30 30 29 29 29 28 28 27 26 25 24 24 25 25 26 25 26 28 29 30 31 32 32 33 33 34 34 34 34 35 35 35 34 36 36 36 35 35 36 36 36 36 36 36 36 37 37 37
32 33 34 34 34 34 33 33 31 30 29 29 29 29 29 28 28 28 27 26 26 26 25 24 23 23 23 24 24 24 25 26 27 28 30 29 30 30 31 32 33 34 34 34 35 35 34 35 36 36 35 35 35 35 35 35 35 35 35 36 37 38
33 33 33 33 33 33 33 31 30 29 28 27 28 27 27 27 26 26 25 25 25 24 24 23 23 22 22 23 22 23 24 25 26 26 28 28 28 28 30 31 32 33 34 34 34 34 34 35 35 35 35 35 35 35 34 34 34 34 34 35 36 38
31 31 32 31 30 31 31 30 28 27 26 26 26 26 25 24 24 24 23 23 24 24 23 23 22 22 21 21 22 23 23 23 24 25 27 27 28 28 29 30 30 30 32 33 33 33 33 34 35 35 35 35 35 34 34 34 33 31 32 33 34 36
29 29 28 28 28 29 28 27 25 24 24 24 25 23 22 22 23 23 23 23 23 23 22 22 21 21 21 20 21 22 22 23 23 24 25 26 26 26 27 27 28 28 30 32 33 33 34 34 35 35 35 35 35 35 34 33 31 30 30 31 31 31
28 27 27 28 28 27 26 25 23 22 23 23 23 21 22 23 23 22 22 22 22 21 21 21 21 20 20 20 20 20 20 21 22 23 23 23 23 24 24 25 26 27 28 30 32 33 33 34 34 34 34 34 34 34 33 32 31 31 30 29 29 30
26 26 26 27 26 26 24 23 21 21 22 22 21 22 23 22 22 22 21 20 19 19 19 20 20 19 19 18 19 18 18 20 22 21 22 22 22 21 21 23 24 25 27 29 31 32 33 34 33 33 33 33 33 33 33 30 30 31 29 27 28 29
24 24 24 25 25 24 22 21 19 20 21 20 21 22 21 21 20 20 19 17 17 17 17 18 17 16 18 16 17 17 17 18 19 19 20 20 20 20 20 21 23 23 25 27 29 31 32 33 32 31 31 31 31 32 32 31 31 31 30 27 26 27
23 23 24 24 23 22 21 20 18 18 18 18 21 20 19 19 18 17 15 14 14 15 15 14 14 15 15 15 16 16 16 17 18 18 19 19 19 19 19 20 21 22 23 24 27 29 30 30 30 30 30 29 30 30 30 31 31 30 29 28 27 27
21 21 21 22 21 21 20 19 17 15 16 19 20 18 17 16 15 13 11 11 11 11 12 12 12 13 14 15 15 14 15 15 16 16 17 18 18 18 18 19 20 20 21 23 23 26 27 28 28 29 29 28 28 29 29 29 29 29 29 26 26 27
21 20 19 20 20 19 19 17 17 13 16 19 18 17 15 13 11 9 8 9 9 10 10 10 11 12 13 13 15 15 15 15 15 16 16 16 16 17 17 18 19 19 20 21 23 24 24 25 26 26 27 26 26 26 27 28 28 27 27 27 26 27
18 17 17 16 18 18 17 16 16 16 16 16 16 15 13 10 9 8 8 8 8 9 9 9 10 11 12 13 13 14 15 15 16 15 15 15 15 16 16 17 17 18 18 19 21 21 21 22 23 24 24 24 24 25 25 25 25 26 26 25 25 26
15 15 15 15 16 17 16 14 14 14 14 15 14 12 11 8 7 7 6 7 7 8 9 9 9 9 10 11 12 12 13 14 15 14 14 14 15 14 14 15 16 17 18 19 19 19 19 20 20 21 21 22 22 23 24 24 23 23 23 23 24 25
13 13 13 13 15 15 13 12 12 12 13 13 12 11 8 7 6 6 5 6 7 7 8 8 8 9 9 10 10 12 13 13 13 13 14 17 18 17 15 15 16 18 20 20 18 17 16 17 17 19 23 22 24 22 21 21 21 22 22 23 26 24
12 12 11 13 14 13 11 10 11 12 12 12 10 9 7 6 5 4 4 6 6 6 7 7 8 8 9 8 9 9 10 14 16 16 15 15 18 19 20 20 18 20 21 19 19 19 16 15 18 22 23 23 23 23 23 23 23 23 22 24 25 22
11 10 10 11 11 10 9 9 10 10 11 10 9 8 7 5 4 4 4 4 5 5 5 6 7 8 8 8 8 8 8 9 12 16 18 18 17 18 19 20 22 22 22 20 17 18 21 21 21 21 22 22 22 22 22 22 22 22 22 23 20 18
9 9 9 10 10 8 8 7 8 9 8 8 7 7 6 4 3 2 3 4 4 5 5 6 6 7 6 7 8 7 8 8 8 10 15 17 17 18 18 19 20 20 20 20 19 17 16 18 20 20 21 21 20 20 20 20 20 20 21 20 20 15
9 9 9 9 8 7 7 7 7 8 6 6 6 5 3 2 1 1 2 2 3 4 5 5 6 6 6 5 6 6 7 7 7 7 8 12 15 16 17 18 18 18 18 18 18 18 17 17 18 19 19 19 19 19 18 18 18 18 18 17 13 12
8 8 8 8 7 6 6 5 5 5 4 4 4 4 2 1 1 1 2 3 3 3 4 5 5 5 5 6 6 6 6 7 8 8 7 7 8 10 13 15 16 16 16 16 17 16 16 17 17 18 18 18 17 17 17 16 13 16 16 13 9 9
6 6 7 6 5 5 4 3 3 4 3 3 3 2 0 -0 0 1 2 2 3 3 3 4 5 4 4 4 4 5 6 6 7 8 7 6 5 6 7 8 10 13 14 12 13 14 15 15 16 16 17 16 16 16 15 13 10 9 9 9 9 8
5 5 5 5 4 3 2 1 3 3 3 2 1 -1 -1 -1 0 1 2 3 3 3 3 3 3 4 3 3 4 5 5 6 6 6 6 6 6 6 6 7 9 9 11 12 12 12 13 14 15 15 15 15 15 14 12 6 6 6 6 7 7 7